18.04.2024;12:00;83
18.04.2024;11:00;85
18.04.2024;10:00;68
18.04.2024;09:00;64
18.04.2024;08:00;55
18.04.2024;07:00;64
18.04.2024;06:00;76
18.04.2024;05:00;66
18.04.2024;04:00;66
18.04.2024;03:00;71
18.04.2024;02:00;73
18.04.2024;01:00;72
18.04.2024;00:00;71
17.04.2024;23:00;90
17.04.2024;22:00;75
17.04.2024;21:00;65
17.04.2024;20:00;74
17.04.2024;19:00;75
17.04.2024;18:00;39
17.04.2024;17:00;56
17.04.2024;16:00;63
17.04.2024;15:00;59
17.04.2024;14:00;47
17.04.2024;13:00;56
17.04.2024;12:00;57
17.04.2024;11:00;63
17.04.2024;10:00;70
17.04.2024;09:00;69
17.04.2024;08:00;59
17.04.2024;07:00;61
17.04.2024;06:00;64
17.04.2024;05:00;65
17.04.2024;04:00;70
17.04.2024;03:00;75
17.04.2024;02:00;78
17.04.2024;01:00;76
17.04.2024;00:00;77
16.04.2024;23:00;78
16.04.2024;22:00;77
16.04.2024;21:00;82
16.04.2024;20:00;81
16.04.2024;19:00;86
16.04.2024;18:00;89
16.04.2024;17:00;90
16.04.2024;16:00;89
16.04.2024;15:00;91
16.04.2024;14:00;89
16.04.2024;13:00;85
